Norfolk Island Observation History
Time Wind Speed Temp Pressure Rel. Hum Rain
03/03:00pm E 13-21 kts 22.3°c 1014.8 hPa 70% 0.0mm
03/02:30pm ESE 12-17 kts 22.4°c 1015.0 hPa 71% 0.0mm
03/02:00pm E 14-19 kts 22.9°c 1014.9 hPa 67% 0.0mm
03/01:30pm E 14-19 kts 23.2°c 1015.1 hPa 67% 0.0mm
03/01:00pm E 15-21 kts 22.5°c 1015.5 hPa 66% 0.0mm
03/12:30pm E 14-20 kts 22.8°c 1015.7 hPa 67% 0.0mm
03/12:00pm ESE 15-21 kts 22.8°c 1015.9 hPa 67% 0.0mm
03/11:30am E 15-20 kts 22.8°c 1016.0 hPa 68% 0.0mm
03/11:00am E 14-20 kts 23.8°c 1016.4 hPa 64% 0.0mm
03/10:30am ESE 10-17 kts 22.3°c 1016.5 hPa 70% 0.0mm
03/10:00am ESE 13-18 kts 22.5°c 1016.4 hPa 70% 0.0mm
03/09:30am E 12-17 kts 22.6°c 1016.3 hPa 70% 0.0mm
03/09:00am E 14-19 kts 21.9°c 1016.4 hPa 68% 0.0mm
03/08:30am E 10-15 kts 22.2°c 1016.2 hPa 69% 0.0mm
03/08:00am E 10-14 kts 21.2°c 1016.3 hPa 75% 0.0mm
03/07:30am E 11-17 kts 20.6°c 1016.3 hPa 72% 0.0mm
03/07:00am E 11-17 kts 20.9°c 1016.1 hPa 75% 0.0mm
03/06:30am E 10-16 kts 19.9°c 1015.7 hPa 76% 0.0mm
03/06:00am E 10-14 kts 19.6°c 1015.4 hPa 78% 0.0mm
03/05:30am E 10-15 kts 19.7°c 1015.1 hPa 79% 0.0mm
03/05:00am E 9-14 kts 19.7°c 1015.0 hPa 78% 0.0mm
03/04:30am E 10-15 kts 19.7°c 1015.0 hPa 78% 0.0mm
03/04:00am E 8-12 kts 19.4°c 1014.8 hPa 78% 0.0mm
03/03:30am E 9-15 kts 19.5°c 1014.7 hPa 79% 0.0mm
03/03:00am E 10-15 kts 19.7°c 1014.6 hPa 81% 0.0mm
03/02:30am E 9-13 kts 19.5°c 1014.8 hPa 80% 0.0mm
03/02:00am ESE 9-14 kts 19.5°c 1015.0 hPa 80% 0.0mm
03/01:30am ESE 8-11 kts 19.4°c 1015.3 hPa 80% 0.0mm
03/01:00am E 7-9 kts 19.3°c 1015.6 hPa 81% 0.0mm
03/12:30am E 8-11 kts 19.6°c 1015.8 hPa 81% 0.0mm
03/12:00am E 7-9 kts 19.1°c 1015.7 hPa 82% 0.0mm
Time Wind Speed Temp Pressure Rel. Hum Rain
02/11:30pm E 8-12 kts 19.4°c 1015.9 hPa 84% 0.0mm
02/11:00pm E 9-12 kts 19.3°c 1016.0 hPa 85% 0.0mm
02/10:30pm ENE 7-8 kts 18.9°c 1016.0 hPa 86% 0.0mm
02/10:00pm ESE 5-7 kts 19.3°c 1016.1 hPa 77% 0.0mm
02/09:30pm E 7-9 kts 19.1°c 1016.1 hPa 75% 0.0mm
02/09:00pm E 7-10 kts 19.3°c 1015.9 hPa 76% 0.0mm
02/08:30pm E 8-12 kts 19.5°c 1015.7 hPa 72% 0.0mm
02/08:00pm ESE 8-10 kts 19.6°c 1015.6 hPa 73% 0.0mm
02/07:30pm ESE 7-9 kts 19.5°c 1015.5 hPa 73% 0.0mm
02/07:00pm ESE 7-11 kts 19.5°c 1015.3 hPa 73% 0.0mm
02/06:30pm ESE 8-11 kts 19.7°c 1015.0 hPa 74% 0.0mm
02/06:00pm E 8-10 kts 19.8°c 1014.7 hPa 73% 0.0mm
02/05:30pm ESE 8-11 kts 20.3°c 1014.6 hPa 70% 0.0mm
02/05:00pm E 10-15 kts 21.0°c 1014.6 hPa 68% 0.0mm
02/04:30pm ESE 11-15 kts 21.5°c 1014.3 hPa 64% 0.0mm
02/04:00pm E 10-16 kts 22.2°c 1014.2 hPa 63% 0.0mm
02/03:30pm ESE 10-16 kts 22.2°c 1014.1 hPa 62% 0.0mm
02/03:00pm SE 10-14 kts 22.5°c 1014.2 hPa 63% 0.0mm
02/02:30pm SE 10-16 kts 21.4°c 1014.4 hPa 65% 0.0mm
02/02:00pm ESE 9-15 kts 22.0°c 1014.5 hPa 65% 0.0mm
02/01:30pm E 10-14 kts 22.8°c 1014.6 hPa 65% 0.0mm
02/01:00pm E 11-15 kts 21.6°c 1014.9 hPa 70% 0.0mm
02/12:30pm E 13-18 kts 21.6°c 1015.1 hPa 67% 0.0mm
02/12:00pm ENE 11-15 kts 21.9°c 1015.4 hPa 74% 0.0mm
02/11:30am SE 9-15 kts 21.8°c 1015.7 hPa 71% 0.0mm
02/11:00am ESE 8-15 kts 21.8°c 1015.9 hPa 65% 0.0mm
02/10:30am SE 9-13 kts 21.9°c 1016.1 hPa 64% 0.0mm
02/10:00am SE 8-12 kts 22.0°c 1016.2 hPa 63% 0.0mm
02/09:30am SE 7-12 kts 22.2°c 1016.2 hPa 61% 0.0mm
02/09:00am SE 7-11 kts 22.0°c 1016.1 hPa 62% 0.0mm
02/08:30am SE 6-9 kts 21.6°c 1015.9 hPa 64% 0.0mm
02/08:00am SE 5-8 kts 21.1°c 1015.8 hPa 65% 0.0mm
02/07:30am ENE 1-5 kts 20.7°c 1015.6 hPa 69% 0.0mm
02/07:00am CALM 0-2 kts 19.1°c 1015.4 hPa 72% 0.0mm
02/06:30am CALM 0 kts 16.9°c 1015.2 hPa 76% 0.0mm
02/06:00am CALM 0 kts 16.8°c 1015.1 hPa 80% 0.0mm
02/05:30am CALM 0 kts 16.3°c 1014.8 hPa 80% 0.0mm
02/05:00am CALM 0 kts 17.4°c 1014.6 hPa 75% 0.0mm
02/04:30am NE 1-4 kts 17.3°c 1014.6 hPa 76% 0.0mm
02/04:00am CALM 0 kts 16.5°c 1014.7 hPa 78% 0.0mm
02/03:30am CALM 0-3 kts 16.4°c 1014.7 hPa 78% 0.0mm
02/03:00am CALM 0 kts 16.8°c 1014.8 hPa 77% 0.0mm
02/02:30am CALM 0 kts 16.6°c 1014.8 hPa 78% 0.0mm
02/02:00am NE 2-4 kts 17.4°c 1014.7 hPa 76% 0.0mm
02/01:30am CALM 0 kts 16.9°c 1015.3 hPa 77% 0.0mm
02/01:00am CALM 0 kts 17.1°c 1015.5 hPa 77% 0.0mm
02/12:30am CALM 0 kts 17.0°c 1015.6 hPa 76% 0.0mm
02/12:00am CALM 0 kts 16.9°c 1015.8 hPa 76% 0.0mm
Time Wind Speed Temp Pressure Rel. Hum Rain
01/11:30pm NE 4-5 kts 17.5°c 1015.9 hPa 74% 0.0mm
01/11:00pm CALM 0 kts 17.8°c 1016.1 hPa 73% 0.0mm
01/10:30pm CALM 0 kts 17.9°c 1016.4 hPa 71% 0.0mm
01/10:00pm CALM 0 kts 18.7°c 1016.5 hPa 71% 0.0mm
01/09:30pm CALM 0 kts 18.2°c 1016.6 hPa 72% 0.0mm
01/09:00pm CALM 0 kts 17.5°c 1016.8 hPa 73% 0.0mm
01/08:30pm CALM 0 kts 17.3°c 1016.6 hPa 72% 0.0mm
01/08:00pm ENE 3-4 kts 17.9°c 1016.4 hPa 72% 0.0mm
01/07:30pm ENE 4-5 kts 17.8°c 1016.3 hPa 70% 0.0mm
01/07:00pm ENE 4 kts 17.9°c 1016.1 hPa 69% 0.0mm
01/06:30pm E 2-4 kts 18.4°c 1015.9 hPa 68% 0.0mm
01/06:00pm E 3-4 kts 18.9°c 1015.6 hPa 66% 0.0mm
01/05:30pm ESE 5-6 kts 19.9°c 1015.4 hPa 63% 0.0mm
01/05:00pm SE 3-5 kts 20.6°c 1015.4 hPa 61% 0.0mm
01/04:30pm SE 5-8 kts 20.7°c 1015.2 hPa 61% 0.0mm
01/04:00pm S 6-11 kts 21.3°c 1015.3 hPa 58% 0.0mm
01/03:30pm SSE 6-9 kts 21.6°c 1015.3 hPa 57% 0.0mm
01/03:00pm SSW 7-10 kts 21.8°c 1015.4 hPa 55% 0.0mm
01/02:45pm SSE 7-10 kts 22.2°c 1015.4 hPa 56% 0.0mm
01/02:30pm S 6-8 kts 22.1°c 1015.5 hPa 56% 0.0mm
01/02:16pm SSW 6-14 kts 22.4°c 1015.6 hPa 51% 0.0mm
01/02:00pm S 7-11 kts 22.6°c 1015.5 hPa 52% 0.0mm
01/01:30pm SE 6-8 kts 22.3°c 1015.7 hPa 52% 0.0mm
01/01:00pm ESE 6-9 kts 22.9°c 1016.0 hPa 54% 0.0mm
01/12:30pm SSE 7-8 kts 22.2°c 1016.1 hPa 53% 0.0mm
01/12:00pm SSE 7-9 kts 22.7°c 1016.3 hPa 53% 0.0mm
01/11:30am S 5-10 kts 22.5°c 1016.6 hPa 51% 0.0mm
01/11:00am SSE 6-9 kts 22.3°c 1017.1 hPa 51% 0.0mm
01/10:30am SSE 6-9 kts 22.3°c 1017.3 hPa 56% 0.0mm
01/10:00am SSW 7-11 kts 21.8°c 1017.5 hPa 53% 0.0mm
01/09:30am SSW 2-6 kts 21.9°c 1017.3 hPa 49% 0.0mm
01/09:00am ESE 5-7 kts 21.8°c 1017.4 hPa 53% 0.0mm
01/08:30am E 1-5 kts 21.9°c 1017.4 hPa 57% 0.0mm
01/08:00am E 6-8 kts 21.2°c 1017.3 hPa 58% 0.0mm
01/07:30am ENE 5-7 kts 20.4°c 1017.4 hPa 63% 0.0mm
01/07:00am ENE 5 kts 18.7°c 1017.4 hPa 69% 0.0mm
01/06:30am ENE 6 kts 17.4°c 1017.3 hPa 71% 0.0mm
01/06:00am NE 6 kts 17.1°c 1017.3 hPa 73% 0.0mm
01/05:30am ENE 4-5 kts 17.1°c 1017.3 hPa 73% 0.0mm
01/05:00am E 5-6 kts 17.0°c 1017.1 hPa 73% 0.0mm
01/04:30am ESE 5-7 kts 17.5°c 1016.8 hPa 73% 0.0mm
01/04:00am E 5-6 kts 16.5°c 1016.7 hPa 76% 0.0mm
01/03:30am ENE 5-7 kts 16.9°c 1016.8 hPa 75% 0.0mm
01/03:00am E 6-7 kts 16.8°c 1016.7 hPa 74% 0.0mm
01/02:30am E 6-8 kts 17.0°c 1016.8 hPa 73% 0.0mm
01/02:00am E 6-8 kts 17.0°c 1017.0 hPa 72% 0.0mm
01/01:30am E 7-11 kts 17.9°c 1017.1 hPa 70% 0.0mm
01/01:00am E 7-10 kts 17.6°c 1017.6 hPa 71% 0.0mm
01/12:30am E 8-10 kts 18.5°c 1017.6 hPa 68% 0.0mm
01/12:00am E 8-10 kts 18.7°c 1017.8 hPa 68% 0.0mm